This is the latest recevied weather packets stored in our database for station/object N3AVN. If no packets are shown the sender has not sent any weather packets the latest 10 day(s).
| Time | Temp. | Humidity | Pressure | Rain* | Wind** | Luminosity | Snow |
|---|---|---|---|---|---|---|---|
| 1777935901 | 18.89° C | 47% | 1006.5 hPa | 0 mm | - | 22 W/m² | - |
| 1777935600 | 18.89° C | 46% | 1006.5 hPa | 0 mm | - | 23 W/m² | - |
| 1777935296 | 18.89° C | 46% | 1006.4 hPa | 0 mm | - | 26 W/m² | - |
| 1777934994 | 19.44° C | 45% | 1006.2 hPa | 0 mm | - | 28 W/m² | - |
| 1777934690 | 19.44° C | 45% | 1006.4 hPa | 0 mm | - | 31 W/m² | - |
| 1777934387 | 19.44° C | 45% | 1006.3 hPa | 0 mm | - | 32 W/m² | - |
| 1777934083 | 19.44° C | 45% | 1006.2 hPa | 0 mm | - | 34 W/m² | - |
| 1777933779 | 19.44° C | 44% | 1006.1 hPa | 0 mm | - | 37 W/m² | - |
| 1777933477 | 20° C | 44% | 1006.2 hPa | 0 mm | - | 42 W/m² | - |
| 1777933174 | 20° C | 43% | 1006.1 hPa | 0 mm | - | 43 W/m² | - |
| 1777932871 | 20.56° C | 43% | 1006.3 hPa | 0 mm | - | 44 W/m² | - |
| 1777932568 | 20.56° C | 41% | 1006.2 hPa | 0 mm | - | 48 W/m² | - |
| 1777932265 | 21.11° C | 41% | 1006 hPa | 0 mm | - | 50 W/m² | - |
| 1777931962 | 21.67° C | 39% | 1006.1 hPa | 0 mm | - | 60 W/m² | - |
| 1777931659 | 22.78° C | 32% | 1006.2 hPa | 0 mm | - | 77 W/m² | - |
| 1777931355 | 22.78° C | 32% | 1006 hPa | 0 mm | - | 105 W/m² | - |
| 1777931051 | 22.78° C | 32% | 1006.2 hPa | 0 mm | - | 113 W/m² | - |
| 1777930748 | 22.22° C | 32% | 1006 hPa | 0 mm | - | 109 W/m² | - |
| 1777930444 | 22.22° C | 32% | 1006.2 hPa | 0 mm | - | 97 W/m² | - |
| 1777930142 | 22.22° C | 33% | 1006.2 hPa | 0 mm | - | 89 W/m² | - |
| 1777929837 | 22.22° C | 33% | 1006.2 hPa | 0 mm | - | 92 W/m² | - |
| 1777929535 | 22.22° C | 32% | 1006.2 hPa | 0 mm | - | 98 W/m² | - |
| 1777929231 | 22.22° C | 33% | 1006.2 hPa | 0 mm | - | 109 W/m² | - |
| 1777928929 | 22.22° C | 33% | 1006.3 hPa | 0 mm | - | 301 W/m² | - |
| 1777928626 | 22.78° C | 32% | 1006.3 hPa | 0 mm | - | 296 W/m² | - |
* Rain latest hour (hover to see other rain measurements)
** Current wind speed in m/s (hover to see current wind gust speed)